Погода в Порто-Веккио

Франция     41°35′45″N   9°16′39″E
темп.,
°C
ветер,
м/с
пор.,
м/с
влажн.,
%
обл.,
%
осадки,
мм/ч
давл.,
гПа
погр.,
м
14 августа, вс
вс1423:00+23св2278100 0.0 1013156
02:00+23св347731 0.0 1012245
05:00+24св4677100 0.0 1011398
08:00+24св456994 0.0 1011355
11:00+26в34601 0.0 1011549
14:00+27вюв42565 0.0 1010555
17:00+27ююв44579 0.0 1009613
20:00+26ююв457343 0.0 1008223
15 августа, пн
пн1523:00+25з34715 0.0 1008119
02:00+25з46810 0.0 1008165
05:00+24з468712 0.0 1007198
08:00+26з34740 0.0 1007221
11:00+29вюв22606 0.0 1007618
14:00+30ю55551 0.0 1007828
17:00+30зюз56492 0.0 1006441
20:00+29з56575 0.0 1006114
16 августа, вт
вт1623:00+25зсз33670 0.1 100868
02:00+25зсз33700 0.1 1008106
05:00+24з46830 0.0 1008250
08:00+25з34791 0.0 1009264
11:00+29юз34660 0.0 1010722
14:00+31зюз67480 0.1 1010796
17:00+31зюз45460 0.0 1010674
20:00+28юз23670 0.0 1010104
17 августа, ср
ср1723:00+25ссз22701 0.0 101265
02:00+25св23694 0.0 1011146
05:00+25ссв23705 0.0 1010116
08:00+26ссз227042 0.0 1012133
11:00+28в3269100 0.0 1013628
14:00+28всв8107599 0.0 1011832
17:00+28св910705 0.0 1011888
20:00+27св71079100 0.1 1011489
18 августа, чт
чт1823:00+26св68797 0.0 1010350
02:00+25ссв458445 0.0 1009140
05:00+26ссв358621 0.0 1008193
08:00+26ссв2386100 0.0 1008183
11:00+28зюз5777100 0.0 1009528
14:00+30зюз9106192 0.0 1007715
17:00+30зюз775367 0.0 1008593
20:00+26з677699 0.0 1008264